User: anonymous   Login
Location: Bonn
(50.7330°N, 7.1000°E)
Time: 16:58:58
(UTC+02:00)
Language:

Iridium 84 - Orbit

View from above orbital plane
View from above orbital plane
View from above satellite
View from above satellite

Ground track
Ground track

The orbit data is extracted from the following two-line orbital elements,

1 25530U 98066D   16179.44173385  .00000135  00000-0  41174-4 0  9993
2 25530  86.3972 138.2948 0002248  85.7041 274.4412 14.34218867926159
Epoch (UTC): 27 June 2016 10:36:05
Eccentricity: 0.0002248
inclination: 86.3972°
perigee height: 776 km
apogee height: 779 km
right ascension of ascending node: 138.2948°
argument of perigee: 85.7041°
revolutions per day: 14.34218867
mean anomaly at epoch: 274.4412°
orbit number at epoch: 92615

The dashed part of the orbit path shows where the satellite is in the earth's shadow,  

DLR